Weather reports worldwide

Advertisment
Santiago de Compostela/Labacolla, Spain (8042): temperature & dewpoint: 10.01.2021 06:00:00 - 16.01.2021 06:00:00 (CET)Santiago de Compostela/Labacolla, Spain (8042): wind speed: 10.01.2021 06:00:00 - 16.01.2021 06:00:00 (CET)Santiago de Compostela/Labacolla, Spain (8042): wind direction: 10.01.2021 06:00:00 - 16.01.2021 06:00:00 (CET)Santiago de Compostela/Labacolla, Spain (8042): reduced air pressure: 10.01.2021 06:00:00 - 16.01.2021 06:00:00 (CET)Santiago de Compostela/Labacolla, Spain (8042): visibility: 10.01.2021 06:00:00 - 16.01.2021 06:00:00 (CET)
Date & Time tt [°C] td [°C] ff [km/h] ff [kn] dd ppp [hPa] vv [km]
16.01.2021 06:00:00 -3,3 -3,7 9 5 W 1032,9 -
16.01.2021 05:00:00 -0,8 -1,1 8 4 S 1032,5 4,0
16.01.2021 04:00:00 -1,1 -1,4 5 3 SE 1032,5 2,0
16.01.2021 03:00:00 -2,5 -2,9 8 4 W 1033,1 -
16.01.2021 02:00:00 0,0 -0,4 4 2 S 1032,6 -
16.01.2021 01:00:00 0,8 0,1 2 1 ESE 1032,9 12
16.01.2021 00:00:00 1,8 1,4 2 1 SSE 1032,5 12
15.01.2021 23:00:00 2,4 1,8 5 3 S 1032,3 11
15.01.2021 22:00:00 3,7 2,8 0 0 N 1032,1 20
15.01.2021 21:00:00 4,7 3,4 4 2 SSE 1031,8 25
15.01.2021 20:00:00 6,3 5,1 0 0 N 1031,5 29
15.01.2021 19:00:00 7,4 5,0 0 0 N 1030,9 30
15.01.2021 18:00:00 9,9 5,1 0 0 N 1030,1 30
15.01.2021 17:00:00 10,8 6,2 0 0 N 1030,0 30
15.01.2021 16:00:00 10,8 5,4 2 1 ENE 1030,3 40
15.01.2021 15:00:00 9,9 5,9 4 2 ESE 1030,6 30
15.01.2021 14:00:00 8,5 5,9 2 1 NE 1031,7 25
15.01.2021 13:00:00 7,9 6,6 4 2 SSE 1032,5 12
15.01.2021 12:00:00 6,1 5,4 2 1 E 1033,3 13
15.01.2021 11:00:00 5,7 5,4 4 2 E 1032,7 7
15.01.2021 10:00:00 6,0 5,7 5 3 SE 1032,2 1,2
15.01.2021 09:00:00 6,3 6,0 2 1 NNE 1032,2 6
15.01.2021 08:00:00 6,6 6,5 4 2 SE 1031,3 9
15.01.2021 07:00:00 7,0 6,9 0 0 N 1031,6 9
15.01.2021 06:00:00 7,5 7,4 4 2 SE 1031,2 6
15.01.2021 05:00:00 7,8 7,7 2 1 SE 1031,4 3,9
15.01.2021 04:00:00 8,2 8,1 4 2 SE 1031,5 0,3
15.01.2021 03:00:00 8,3 8,2 0 0 N 1031,6 -
15.01.2021 02:00:00 8,4 8,3 4 2 SSW 1031,9 -
15.01.2021 01:00:00 8,4 8,3 0 0 N 1031,9 0,3
15.01.2021 00:00:00 8,4 8,1 0 0 N 1032,0 -
14.01.2021 23:00:00 8,4 8,1 0 0 N 1031,8 -
14.01.2021 22:00:00 8,4 8,0 4 2 S 1031,5 3,0
14.01.2021 21:00:00 8,6 7,7 0 0 N 1031,5 9
14.01.2021 20:00:00 8,8 7,9 5 3 S 1031,3 7
14.01.2021 19:00:00 8,9 8,0 4 2 S 1031,3 10
14.01.2021 18:00:00 9,3 7,9 4 2 SSE 1031,3 8
14.01.2021 17:00:00 9,6 7,9 0 0 N 1031,3 8
14.01.2021 16:00:00 9,4 7,5 2 1 S 1031,1 15
14.01.2021 15:00:00 9,2 7,3 0 0 N 1031,5 16
14.01.2021 14:00:00 8,7 6,7 4 2 SE 1032,1 30
14.01.2021 13:00:00 7,6 6,1 4 2 SE 1032,9 10
14.01.2021 12:00:00 7,1 4,7 5 3 SSE 1033,1 25
14.01.2021 11:00:00 6,3 4,1 8 4 SSE 1032,8 17
14.01.2021 10:00:00 5,3 3,2 5 3 SSE 1032,8 15
14.01.2021 09:00:00 4,7 2,9 8 4 S 1032,8 14
14.01.2021 08:00:00 4,6 2,6 5 3 S 1032,6 13
14.01.2021 07:00:00 4,4 2,7 5 3 S 1032,7 15
14.01.2021 06:00:00 4,2 2,5 9 5 S 1032,9 12
14.01.2021 05:00:00 4,2 2,6 5 3 SSE 1033,0 12
14.01.2021 04:00:00 4,1 3,1 8 4 S 1033,1 10
14.01.2021 03:00:00 4,9 3,2 4 2 SSE 1033,0 16
14.01.2021 02:00:00 4,9 3,6 0 0 N 1033,3 15
14.01.2021 01:00:00 5,2 3,6 5 3 NW 1033,8 15
14.01.2021 00:00:00 5,0 3,8 4 2 NW 1033,8 9
13.01.2021 23:00:00 6,0 3,7 0 0 N 1033,5 15
13.01.2021 22:00:00 6,3 3,8 8 4 N 1033,3 15
13.01.2021 21:00:00 6,0 3,8 4 2 NNE 1033,1 21
13.01.2021 20:00:00 6,4 3,5 4 2 NNE 1032,8 30
13.01.2021 19:00:00 6,0 4,5 4 2 N 1032,6 8
13.01.2021 18:00:00 7,9 4,1 2 1 SSW 1031,8 19
13.01.2021 17:00:00 9,8 4,2 4 2 NNW 1031,4 30
13.01.2021 16:00:00 9,3 3,1 5 3 NNW 1031,3 20
13.01.2021 15:00:00 8,7 2,9 8 4 NW 1031,3 30
13.01.2021 14:00:00 7,5 3,0 9 5 NW 1032,1 20
13.01.2021 13:00:00 6,3 2,4 2 1 WNW 1033,0 20
13.01.2021 12:00:00 3,7 1,5 4 2 NNW 1033,8 16
13.01.2021 11:00:00 1,4 0,6 4 2 NNW 1034,3 9
13.01.2021 10:00:00 0,6 0,3 0 0 N 1034,1 8
13.01.2021 09:00:00 0,0 -0,2 0 0 N 1034,2 9
13.01.2021 08:00:00 0,7 0,5 0 0 N 1033,8 0,8
13.01.2021 07:00:00 -2,5 -2,8 0 0 N 1034,2 0,5
13.01.2021 06:00:00 0,2 -0,1 0 0 N 1033,4 3,0
13.01.2021 05:00:00 1,0 0,8 0 0 N 1033,5 4,8
13.01.2021 04:00:00 -0,2 -0,5 4 2 NNW 1033,6 2,0
13.01.2021 03:00:00 -1,4 -1,8 8 4 WNW 1033,6 -
13.01.2021 02:00:00 1,3 0,9 0 0 N 1033,1 13
13.01.2021 01:00:00 3,0 2,0 2 1 N 1033,3 15
13.01.2021 00:00:00 3,4 2,7 0 0 N 1033,5 15
12.01.2021 23:00:00 3,6 3,0 0 0 N 1033,2 19
12.01.2021 22:00:00 3,3 2,1 0 0 N 1033,5 20
12.01.2021 21:00:00 2,5 0,7 5 3 NNW 1033,6 22
12.01.2021 20:00:00 5,0 2,9 4 2 N 1033,0 30
12.01.2021 19:00:00 5,8 2,1 4 2 NNE 1032,6 30
12.01.2021 18:00:00 7,3 1,4 2 1 NW 1031,9 30
12.01.2021 17:00:00 9,3 1,7 5 3 NNW 1031,3 30
12.01.2021 16:00:00 9,5 2,2 8 4 NW 1031,0 30
12.01.2021 15:00:00 9,1 1,5 8 4 NNW 1030,9 30
12.01.2021 14:00:00 8,5 0,4 4 2 N 1031,4 30
12.01.2021 13:00:00 7,4 1,0 2 1 NNE 1032,4 30
12.01.2021 12:00:00 6,7 -0,1 0 0 N 1033,0 30
12.01.2021 11:00:00 4,2 -0,8 2 1 S 1032,7 30
12.01.2021 10:00:00 1,1 -1,3 0 0 N 1032,5 30
12.01.2021 09:00:00 -1,5 -3,6 2 1 NNW 1032,6 30
12.01.2021 08:00:00 -2,6 -3,3 8 4 WNW 1032,1 15
12.01.2021 07:00:00 -1,2 -2,5 0 0 N 1031,3 30
12.01.2021 06:00:00 0,9 -1,3 4 2 SE 1030,7 30
12.01.2021 05:00:00 0,4 -1,6 0 0 N 1031,2 30
12.01.2021 04:00:00 1,6 -0,2 0 0 N 1031,0 30
12.01.2021 03:00:00 1,4 -0,1 0 0 N 1030,6 30
12.01.2021 02:00:00 1,7 -0,6 0 0 N 1030,9 30
12.01.2021 01:00:00 2,4 -0,3 0 0 N 1030,5 30
12.01.2021 00:00:00 2,9 -0,5 2 1 N 1030,5 30
11.01.2021 23:00:00 2,8 -0,5 0 0 N 1029,9 30
11.01.2021 22:00:00 3,8 -0,6 4 2 NNE 1029,4 30
11.01.2021 21:00:00 4,5 -0,5 4 2 N 1029,1 30
11.01.2021 20:00:00 5,2 0,1 4 2 NNE 1028,6 30
11.01.2021 19:00:00 5,9 0,9 4 2 NNE 1027,9 30
11.01.2021 18:00:00 8,1 0,7 4 2 ENE 1027,2 30
11.01.2021 17:00:00 9,6 1,2 5 3 E 1026,4 30
11.01.2021 16:00:00 10,3 1,4 4 2 NE 1026,1 30
11.01.2021 15:00:00 9,6 2,1 8 4 NNE 1026,2 30
11.01.2021 14:00:00 8,6 2,1 9 5 NNE 1026,8 30
11.01.2021 13:00:00 7,9 1,5 5 3 NE 1027,8 30
11.01.2021 12:00:00 6,6 1,8 9 5 NNE 1028,5 28
11.01.2021 11:00:00 5,2 1,3 4 2 ENE 1028,1 30
11.01.2021 10:00:00 2,7 0,6 0 0 N 1028,0 29
11.01.2021 09:00:00 2,4 0,1 8 4 N 1027,4 30
11.01.2021 08:00:00 2,8 -0,1 8 4 N 1027,1 30
11.01.2021 07:00:00 2,4 0,3 2 1 NNE 1026,6 30
11.01.2021 06:00:00 3,2 0,5 4 2 N 1026,5 30
11.01.2021 05:00:00 3,2 -0,1 5 3 NNE 1026,5 30
11.01.2021 04:00:00 2,7 -0,6 5 3 NNE 1026,4 30
11.01.2021 03:00:00 2,9 -0,6 4 2 NNE 1025,9 30
11.01.2021 02:00:00 2,6 -0,5 4 2 ENE 1025,8 30
11.01.2021 01:00:00 2,9 -0,6 4 2 ENE 1025,7 30
11.01.2021 00:00:00 2,8 -0,5 4 2 NE 1025,7 30
10.01.2021 23:00:00 3,6 -0,2 9 5 NNE 1025,5 30
10.01.2021 22:00:00 3,2 0,6 11 6 N 1025,0 25
10.01.2021 21:00:00 3,4 0,6 11 6 N 1024,8 30
10.01.2021 20:00:00 3,9 -0,1 9 5 N 1023,9 30
10.01.2021 19:00:00 4,9 -0,3 5 3 N 1022,9 35
10.01.2021 18:00:00 6,3 -1,2 8 4 NE 1022,1 30
10.01.2021 17:00:00 7,9 -0,4 9 5 E 1021,1 30
10.01.2021 16:00:00 8,8 -0,5 5 3 E 1020,5 35
10.01.2021 15:00:00 8,3 -1,3 15 8 NE 1020,4 30
10.01.2021 14:00:00 8,9 -0,3 11 6 ENE 1020,5 35
10.01.2021 13:00:00 8,1 1,9 8 4 NNE 1020,6 35
10.01.2021 12:00:00 6,1 1,0 8 4 NE 1021,2 30
10.01.2021 11:00:00 5,5 1,4 8 4 NNE 1020,6 30
10.01.2021 10:00:00 4,4 1,2 11 6 NNE 1019,7 35
10.01.2021 09:00:00 4,4 1,8 11 6 NNE 1018,6 29
10.01.2021 08:00:00 4,0 1,9 13 7 N 1018,1 30
10.01.2021 07:00:00 3,8 1,5 8 4 N 1017,4 13
10.01.2021 06:00:00 3,5 1,5 11 6 NNE 1017,0 27

tt = temperature
td = dewpoint
ff = wind speed
dd = wind direction
ppp = reduced air pressure
vv = visibility

Next stations